Wetbulb
54.99 54.97 55.03 54.77 53.69 55.35 55.50 54.85 54.89 56.40 56.70 56.91 57.61 58.12 60.13 61.02 62.05 61.18 57.04 61.03 61.47 62.54 62.00 56.83 55.53 53.18 52.69 49.77 49.38 48.10 42.68 41.56 44.42 44.68 47.03 48.93 49.08 51.04 53.40 53.68 53.75 55.41 55.92 58.70 62.86
54.23 54.30 54.53 54.67 54.19 54.30 55.40 54.64 54.09 54.86 55.91 56.58 57.12 57.79 60.01 60.85 58.48 57.15 62.79 64.34 63.92 61.45 57.59 53.46 53.37 50.83 49.03 48.22 46.81 44.41 41.14 42.68 47.22 48.12 47.41 48.31 49.91 50.42 52.41 51.32 52.51 54.11 58.43 61.30 61.93
53.82 53.87 54.09 54.32 54.32 53.58 54.69 54.90 53.99 53.97 54.42 56.23 56.73 58.20 59.06 59.86 53.73 56.08 64.65 64.86 63.67 61.38 58.37 55.96 54.15 51.21 47.50 47.78 45.05 42.55 41.47 44.65 47.27 49.26 49.24 48.76 49.09 50.85 50.77 49.05 51.61 52.31 56.15 59.88 60.53
53.60 53.65 53.79 53.85 54.05 53.74 53.60 54.60 54.67 54.19 54.30 54.82 56.36 56.87 58.25 57.10 44.83 53.82 58.85 64.88 63.48 60.75 58.05 52.87 52.43 48.01 45.64 44.03 45.97 41.63 43.15 45.97 49.43 50.56 48.97 48.44 49.79 49.80 50.96 51.59 53.31 55.26 58.94 59.54 59.22
53.28 53.27 53.48 53.35 53.69 53.74 53.20 54.43 54.43 53.83 53.56 54.84 56.00 56.64 55.26 50.48 50.15 55.57 57.25 63.11 61.88 60.07 57.37 51.85 48.79 49.67 45.23 44.64 45.11 42.88 45.09 47.20 47.60 48.79 48.90 49.77 48.63 49.49 49.94 52.43 55.39 58.15 59.46 59.34 59.44
52.93 52.87 53.16 53.10 53.47 53.66 52.95 53.93 54.22 53.15 53.35 54.56 56.23 55.99 51.95 44.97 55.09 56.07 56.15 59.86 60.38 59.06 56.48 52.33 48.69 50.82 47.92 45.95 45.02 46.01 46.81 45.99 46.50 46.80 47.46 48.18 47.66 50.53 50.15 54.97 56.52 57.38 57.91 59.18 59.70
52.47 52.66 52.81 53.05 53.26 53.27 52.77 53.69 54.01 53.11 52.75 54.64 56.23 53.61 50.14 48.50 55.46 55.71 56.25 55.22 58.39 58.48 54.71 53.31 50.32 47.66 48.94 45.29 47.13 47.29 44.49 44.28 44.88 45.46 46.12 47.86 45.65 46.59 49.27 55.12 55.64 56.13 56.96 57.58 58.89
51.98 52.39 52.64 52.82 52.99 53.10 52.66 53.50 53.59 53.31 53.92 54.73 55.50 51.59 47.17 55.00 56.10 54.88 55.12 53.86 56.77 57.20 56.22 53.15 52.46 48.39 48.13 47.60 44.20 42.98 44.26 39.64 42.64 44.73 45.24 46.27 43.90 47.37 50.54 54.04 54.06 54.71 55.58 56.69 57.58
52.44 52.30 52.47 52.65 52.79 52.59 52.86 53.41 53.34 53.71 53.81 54.22 49.95 47.82 45.30 55.98 51.05 54.17 54.98 53.06 54.43 54.66 54.30 53.97 50.95 46.13 45.85 42.62 39.64 38.69 38.02 36.75 39.60 43.24 43.62 45.30 43.54 45.74 49.52 51.96 52.35 53.40 54.52 56.05 56.81
52.38 52.68 52.37 52.59 52.70 52.34 53.15 53.10 52.18 52.06 51.50 51.77 51.08 46.43 49.45 47.30 51.12 52.77 53.91 54.01 51.93 50.90 50.07 48.98 45.59 42.23 40.63 42.88 37.85 33.64 33.73 37.22 39.21 41.76 41.06 40.59 41.00 41.69 45.68 50.75 51.19 52.25 52.90 54.04 55.42
52.29 52.54 52.51 52.53 52.28 52.84 49.92 46.12 39.41 41.12 45.34 42.00 42.83 44.11 47.94 51.04 52.98 50.86 51.65 51.04 50.90 49.31 44.42 45.25 40.72 38.16 40.15 43.69 43.29 39.43 35.99 38.54 37.00 39.72 40.56 40.45 40.56 40.35 42.60 44.96 48.59 49.96 50.89 52.60 53.83
52.59 52.28 52.40 52.36 51.97 52.61 48.88 42.51 41.07 41.98 35.42 44.37 47.94 48.60 50.02 50.81 46.14 48.33 51.76 46.35 45.52 42.46 44.36 43.46 39.63 42.17 42.28 41.12 42.07 38.84 37.55 34.78 36.89 37.32 39.20 38.05 39.10 39.60 40.24 41.53 44.01 47.49 49.61 51.55 50.79
52.05 52.23 52.14 51.41 52.34 49.36 46.40 45.94 50.24 48.07 37.36 38.57 45.38 46.28 47.63 49.43 45.81 45.21 48.87 47.03 43.15 40.97 42.83 42.10 41.99 42.82 41.04 38.09 37.51 38.41 38.52 35.80 35.96 35.82 36.06 34.29 37.23 36.14 39.25 40.08 41.14 43.13 46.11 48.28 50.40
51.80 51.73 51.12 51.79 46.10 46.85 45.22 49.30 50.84 49.59 32.92 34.14 39.45 43.32 46.54 48.10 43.83 49.52 50.12 46.45 43.14 39.40 40.52 41.34 42.35 40.48 38.80 37.72 37.54 32.94 38.37 38.11 35.51 35.78 32.26 33.08 32.28 33.61 36.20 37.39 38.45 41.65 41.70 43.89 44.91
52.15 50.93 51.68 50.94 44.27 44.37 48.57 50.70 50.39 46.16 22.80 34.61 39.00 47.48 45.81 44.38 44.85 45.56 50.03 46.43 39.05 39.00 39.68 35.31 39.91 38.70 37.77 39.04 38.06 36.12 38.56 39.92 36.15 32.82 32.53 31.43 30.64 32.82 31.48 33.83 36.69 39.98 41.34 41.98 42.86
51.92 51.52 50.44 46.90 45.50 47.99 49.73 49.43 45.45 31.21 21.27 32.45 37.73 39.79 40.13 41.58 42.85 46.09 44.96 46.41 44.03 37.89 38.05 37.04 41.78 42.01 39.47 39.10 38.71 37.97 36.05 34.55 33.04 32.27 25.88 30.26 29.63 30.00 31.14 35.03 36.82 38.73 38.77 40.14 39.67
51.35 51.01 48.26 47.90 44.09 48.77 47.26 43.32 30.39 23.86 34.05 31.74 33.46 39.27 37.88 38.02 39.86 41.21 39.98 38.29 36.29 31.37 31.98 34.24 34.10 39.68 42.22 38.44 39.22 36.80 35.70 27.76 27.13 24.68 25.86 25.64 26.28 30.80 34.64 35.14 36.52 37.27 37.52 38.21 37.96
50.18 49.62 48.50 46.75 46.63 46.32 42.52 34.43 21.49 27.85 29.23 35.91 37.35 36.89 34.07 37.45 36.91 39.72 37.94 36.05 38.64 36.52 32.19 29.27 27.88 34.83 40.38 39.03 34.82 34.55 32.60 28.76 22.41 22.58 23.27 26.39 25.15 32.06 34.23 34.77 35.14 35.75 36.75 37.15 38.48
47.48 41.17 41.58 43.23 44.94 43.55 35.55 24.88 25.24 28.41 32.34 31.92 35.03 33.07 32.43 34.58 36.04 37.08 37.56 36.24 37.91 37.28 32.83 30.93 29.48 37.25 39.49 40.13 39.22 35.49 32.02 33.96 25.56 19.31 23.02 24.92 27.73 33.55 32.60 33.24 34.19 36.06 36.43 36.88 37.66
38.31 36.69 38.34 43.31 43.17 38.99 30.78 25.17 30.38 33.78 33.40 33.02 31.44 34.25 31.73 33.16 33.83 34.61 35.09 38.29 36.61 38.22 38.88 34.53 28.53 35.27 36.93 40.82 39.19 36.53 36.44 31.45 30.86 18.44 18.36 21.77 23.36 29.52 31.58 35.42 34.03 35.27 35.61 36.47 37.01
35.09 30.56 38.60 41.90 40.43 33.03 24.41 27.02 32.38 36.06 35.91 31.30 30.81 33.09 34.82 33.85 33.98 33.61 33.96 37.04 39.19 37.00 37.93 35.53 33.32 32.56 35.61 33.14 33.14 33.08 33.05 34.10 32.60 26.69 22.64 20.26 25.25 29.90 32.87 33.67 35.73 35.63 36.88 36.77 36.79
31.63 23.42 38.81 39.29 28.73 17.46 29.14 31.19 36.71 35.06 36.83 35.38 34.22 33.43 34.41 36.07 33.45 32.96 33.12 35.76 40.53 39.09 34.86 36.95 33.65 29.34 31.55 34.86 36.70 34.70 34.27 33.36 30.76 25.25 21.85 23.28 27.39 30.46 30.54 31.90 34.11 35.83 37.70 38.48 37.55
23.74 27.44 37.04 35.17 20.32 19.24 27.97 33.04 34.88 34.26 33.91 33.64 32.93 34.24 34.84 34.08 32.22 34.44 35.01 39.74 40.06 38.84 36.62 37.36 31.92 26.62 29.39 33.74 33.83 31.91 31.66 35.45 29.78 29.70 24.55 25.98 28.73 31.06 31.35 33.39 34.24 34.48 36.34 37.46 37.89
25.57 20.96 27.04 28.79 26.50 24.63 17.82 24.58 27.58 35.69 34.23 34.62 33.97 35.57 33.45 31.38 35.91 34.28 34.83 38.26 39.91 39.89 40.71 39.25 32.66 29.17 25.43 27.34 31.88 29.64 29.42 33.02 33.73 28.47 26.04 29.68 26.07 28.70 31.52 33.63 35.21 34.83 35.05 35.04 35.58
25.50 24.40 25.94 14.45 20.25 26.61 28.18 28.13 28.73 28.54 33.22 34.06 30.61 32.86 31.74 28.11 30.52 31.11 35.53 36.70 38.39 40.41 39.06 36.48 29.89 29.21 29.44 29.33 30.63 32.08 31.24 30.11 30.57 33.54 31.32 33.72 29.94 32.11 32.93 33.79 34.84 36.05 35.87 35.11 35.55
24.22 22.63 30.21 27.41 29.11 26.38 27.17 23.06 27.47 30.23 31.40 30.57 30.01 33.15 33.97 30.45 32.02 29.72 33.74 33.61 35.09 37.40 37.13 37.09 28.81 29.72 24.96 30.18 29.85 28.69 31.86 32.65 31.95 31.90 28.95 28.09 28.55 33.14 33.76 34.00 34.82 36.05 36.08 36.01 36.35
31.96 30.33 27.54 27.88 24.82 20.55 18.83 27.45 28.83 30.63 33.33 34.24 32.83 32.72 32.68 35.65 36.08 36.86 37.59 37.50 37.29 36.71 34.58 33.78 29.47 27.69 24.84 26.36 28.56 23.89 27.10 30.53 31.93 33.23 32.48 30.72 34.03 35.32 34.18 34.47 34.72 35.70 35.18 35.66 37.09
MSLP
1017.44 1017.29 1017.03 1016.75 1016.46 1016.11 1015.88 1015.78 1015.42 1014.95 1014.94 1014.99 1014.75 1014.44 1014.13 1014.15 1013.97 1013.93 1013.29 1013.13 1014.29 1014.76 1015.35 1015.50 1014.58 1014.09 1014.09 1014.13 1014.30 1014.83 1015.53 1015.66 1015.24 1015.33 1015.14 1015.42 1015.68 1016.24 1016.39 1016.83 1017.44 1017.66 1017.91 1017.96 1018.73
1017.00 1016.98 1016.69 1016.32 1016.05 1015.72 1015.55 1015.45 1015.26 1014.91 1014.63 1014.50 1014.31 1014.18 1013.71 1013.55 1013.74 1011.99 1012.39 1012.72 1013.41 1014.51 1015.14 1015.02 1014.74 1014.35 1014.25 1014.11 1014.31 1014.80 1015.19 1014.86 1014.26 1014.26 1014.42 1014.77 1015.17 1015.82 1016.42 1017.00 1017.49 1017.78 1018.10 1018.33 1018.93
1016.65 1016.58 1016.34 1015.91 1015.64 1015.37 1015.08 1014.84 1014.79 1014.60 1014.37 1014.05 1013.89 1013.64 1013.26 1013.30 1013.32 1011.19 1011.47 1011.97 1012.61 1014.10 1015.47 1014.74 1014.97 1014.82 1014.37 1014.20 1014.34 1014.52 1014.38 1014.06 1013.83 1013.89 1013.96 1014.52 1015.25 1015.45 1016.00 1016.96 1016.51 1016.88 1017.87 1018.37 1018.97
1016.23 1016.13 1015.79 1015.46 1015.18 1014.86 1014.57 1014.39 1014.10 1014.02 1013.97 1013.63 1013.47 1013.35 1013.16 1012.94 1011.73 1011.23 1011.56 1011.32 1012.20 1013.74 1014.17 1014.64 1015.41 1015.25 1014.40 1014.31 1013.94 1014.09 1013.93 1013.94 1013.83 1013.94 1014.29 1014.42 1014.86 1015.45 1015.48 1015.44 1015.43 1016.25 1017.12 1018.04 1018.72
1015.86 1015.69 1015.27 1014.99 1014.71 1014.33 1014.10 1013.78 1013.61 1013.41 1013.45 1013.11 1012.86 1012.57 1013.13 1012.33 1011.01 1010.82 1011.01 1010.58 1011.71 1012.61 1013.42 1014.19 1015.25 1015.08 1014.40 1014.26 1014.01 1013.86 1014.02 1014.05 1014.04 1014.17 1014.23 1014.40 1014.53 1015.01 1015.42 1015.45 1015.65 1016.51 1017.55 1017.96 1018.43
1015.49 1015.21 1014.78 1014.49 1014.14 1013.84 1013.61 1013.24 1013.01 1012.80 1012.77 1012.37 1012.14 1012.04 1011.58 1010.71 1010.42 1010.55 1010.43 1010.27 1010.99 1012.00 1013.01 1014.06 1014.52 1014.68 1014.63 1014.60 1014.18 1014.12 1014.05 1014.11 1014.37 1014.57 1014.36 1014.56 1014.90 1015.00 1015.62 1015.74 1016.30 1016.81 1017.52 1018.05 1018.29
1015.01 1014.68 1014.37 1013.98 1013.58 1013.37 1013.11 1012.70 1012.45 1012.30 1012.08 1011.98 1011.66 1012.08 1010.36 1009.77 1010.09 1010.50 1010.23 1010.99 1011.08 1011.61 1012.57 1013.76 1015.43 1014.66 1015.04 1015.37 1015.28 1014.32 1014.78 1014.49 1014.52 1014.70 1014.40 1014.55 1015.44 1015.22 1015.39 1015.95 1016.47 1017.15 1017.56 1018.00 1018.28
1014.63 1014.24 1013.90 1013.49 1013.15 1012.92 1012.59 1012.10 1011.78 1011.41 1011.12 1011.12 1011.02 1011.46 1009.74 1009.66 1009.94 1010.24 1010.19 1011.52 1011.79 1012.23 1011.70 1013.80 1014.84 1014.60 1015.03 1014.45 1014.44 1016.22 1015.40 1015.07 1014.82 1014.57 1014.56 1014.94 1015.19 1015.17 1015.55 1015.98 1016.74 1017.30 1017.70 1017.87 1018.07
1014.14 1013.80 1013.43 1013.11 1012.72 1012.45 1012.17 1011.56 1011.09 1009.88 1010.21 1010.42 1010.85 1011.26 1009.59 1009.30 1010.16 1009.89 1010.20 1010.78 1011.46 1012.07 1012.81 1013.78 1014.33 1014.70 1015.02 1013.92 1015.49 1015.69 1015.48 1015.85 1014.89 1014.49 1014.68 1015.09 1015.26 1015.30 1015.83 1016.19 1016.78 1017.34 1017.58 1017.78 1018.10
1013.56 1013.25 1013.04 1012.71 1012.30 1011.86 1011.60 1011.09 1010.06 1009.77 1009.51 1009.34 1009.43 1009.83 1009.11 1008.58 1009.70 1009.11 1010.31 1010.46 1011.08 1012.03 1013.13 1014.20 1014.29 1014.75 1014.74 1013.32 1012.67 1014.69 1015.50 1015.99 1015.39 1015.32 1015.20 1015.13 1015.25 1015.65 1015.96 1016.25 1016.65 1017.19 1017.52 1017.70 1017.80
1012.90 1012.65 1012.55 1012.41 1012.03 1011.58 1011.46 1010.79 1010.83 1010.16 1009.21 1009.24 1008.65 1008.16 1007.82 1008.77 1009.03 1010.03 1009.92 1010.66 1011.03 1011.80 1012.64 1013.01 1013.42 1013.40 1013.25 1013.09 1012.88 1014.09 1014.88 1015.66 1015.55 1015.53 1015.46 1015.43 1015.50 1015.64 1016.28 1016.66 1017.05 1017.29 1017.45 1017.33 1017.53
1012.29 1012.23 1012.19 1012.08 1011.75 1011.35 1011.42 1011.24 1011.67 1012.15 1010.34 1008.58 1007.84 1007.78 1007.74 1007.94 1008.92 1010.08 1009.67 1010.50 1011.11 1011.76 1012.31 1012.85 1012.68 1012.72 1013.10 1013.43 1013.69 1013.95 1014.79 1015.51 1016.04 1015.94 1015.85 1015.82 1015.89 1015.91 1016.34 1016.34 1016.52 1016.88 1017.10 1016.96 1017.41
1011.84 1011.92 1012.05 1012.01 1011.66 1011.49 1011.28 1011.01 1011.33 1011.59 1011.07 1009.39 1008.61 1007.97 1007.90 1008.08 1009.15 1010.10 1010.15 1010.59 1011.22 1011.79 1012.11 1011.99 1012.43 1012.69 1012.99 1013.62 1013.94 1013.88 1014.10 1015.19 1016.09 1016.37 1016.48 1016.63 1016.42 1016.16 1016.14 1016.27 1016.43 1016.50 1016.48 1016.60 1016.69
1011.61 1011.83 1011.95 1012.04 1012.07 1011.52 1011.22 1010.96 1010.55 1010.78 1010.88 1010.40 1009.05 1008.59 1008.26 1008.27 1009.56 1009.98 1010.19 1010.46 1011.67 1012.34 1012.55 1012.83 1012.89 1013.22 1013.27 1013.77 1014.03 1014.21 1014.13 1015.03 1016.02 1016.50 1017.40 1017.49 1016.22 1015.95 1015.81 1015.89 1016.17 1015.95 1016.12 1016.04 1016.39
1011.72 1011.91 1011.84 1011.96 1011.94 1011.50 1011.44 1011.13 1010.86 1010.91 1011.04 1011.01 1009.77 1009.38 1008.65 1008.87 1009.37 1010.21 1010.34 1010.51 1011.53 1012.55 1013.24 1014.35 1014.28 1014.02 1013.79 1013.73 1014.45 1014.89 1014.33 1015.12 1016.62 1018.19 1018.97 1018.15 1017.95 1015.60 1015.76 1015.87 1015.63 1015.26 1015.38 1015.46 1015.91
1011.97 1011.91 1011.73 1012.12 1011.91 1011.53 1011.34 1011.04 1011.01 1011.25 1011.00 1010.66 1009.95 1009.30 1009.19 1009.42 1009.52 1009.86 1010.49 1010.80 1012.00 1013.39 1014.14 1014.80 1014.78 1014.38 1014.35 1014.55 1014.65 1015.35 1015.41 1016.61 1017.80 1019.60 1020.10 1018.18 1017.85 1015.91 1015.22 1014.35 1014.36 1014.57 1014.87 1014.97 1015.68
1012.30 1011.83 1011.92 1011.87 1012.13 1011.27 1011.36 1011.31 1011.49 1011.52 1011.50 1011.05 1010.35 1009.68 1009.76 1009.73 1009.45 1009.90 1010.77 1011.61 1012.30 1013.70 1014.68 1015.31 1015.44 1015.11 1014.79 1014.90 1015.61 1015.96 1016.04 1018.13 1019.52 1019.69 1018.70 1018.40 1017.90 1015.07 1014.14 1013.72 1013.69 1014.01 1014.45 1014.83 1015.62
1012.95 1012.38 1012.44 1012.03 1011.88 1011.39 1011.55 1011.87 1012.55 1013.08 1012.52 1011.48 1010.53 1010.23 1010.35 1010.38 1010.50 1010.53 1011.10 1011.69 1012.30 1012.48 1014.00 1014.82 1016.21 1015.61 1015.34 1015.10 1015.25 1016.28 1016.73 1016.54 1017.51 1018.30 1018.59 1018.60 1016.66 1014.14 1013.28 1013.41 1013.79 1014.23 1014.59 1015.36 1016.14
1013.17 1013.18 1013.07 1012.48 1011.81 1011.37 1011.86 1012.99 1014.46 1014.00 1013.58 1012.60 1011.39 1010.99 1011.09 1010.80 1010.69 1010.76 1011.24 1011.72 1011.98 1011.87 1012.56 1013.99 1015.50 1015.96 1015.75 1015.82 1015.92 1016.48 1016.69 1016.45 1017.24 1018.83 1018.26 1017.02 1015.95 1013.63 1013.15 1013.42 1013.79 1014.28 1014.90 1015.45 1016.09
1013.87 1014.03 1013.35 1012.42 1011.64 1011.49 1012.42 1014.55 1014.72 1014.44 1013.67 1012.91 1011.90 1011.38 1011.19 1011.25 1011.10 1010.93 1011.37 1011.84 1011.88 1011.68 1011.39 1012.94 1014.99 1015.95 1016.27 1016.20 1016.50 1015.97 1016.18 1016.87 1017.05 1017.84 1017.71 1016.71 1015.76 1013.79 1013.20 1012.91 1013.39 1014.08 1014.63 1015.40 1016.23
1014.25 1014.39 1012.79 1012.12 1011.70 1012.56 1014.36 1014.99 1014.84 1014.13 1013.82 1013.33 1012.74 1011.97 1011.61 1011.47 1011.47 1011.57 1011.89 1012.25 1011.82 1011.67 1011.49 1012.31 1013.51 1016.12 1016.36 1016.54 1016.09 1016.57 1016.62 1017.04 1017.17 1017.15 1016.74 1016.43 1014.58 1012.67 1012.08 1012.15 1012.68 1013.67 1014.59 1015.35 1016.31
1014.94 1015.04 1013.16 1012.26 1013.38 1015.14 1015.39 1015.19 1014.61 1014.05 1013.60 1013.57 1013.26 1012.69 1012.07 1011.74 1011.88 1012.11 1012.11 1012.02 1011.65 1011.46 1011.81 1012.52 1013.59 1015.30 1016.06 1015.95 1015.86 1015.89 1015.98 1016.02 1016.50 1016.74 1016.61 1015.88 1013.46 1012.31 1012.40 1012.60 1012.93 1013.40 1013.92 1014.84 1015.80
1016.10 1015.98 1013.91 1013.80 1016.02 1017.15 1016.62 1015.58 1015.15 1014.35 1013.96 1013.84 1013.68 1013.28 1012.93 1012.58 1012.69 1012.66 1012.74 1012.37 1012.05 1012.00 1012.13 1012.64 1013.83 1015.36 1016.38 1016.62 1016.24 1016.24 1016.12 1015.49 1015.64 1015.54 1015.26 1015.07 1013.35 1012.44 1012.56 1012.97 1013.43 1013.72 1014.17 1014.76 1015.89
1017.15 1017.29 1016.59 1016.21 1017.22 1017.39 1017.17 1016.40 1015.53 1014.81 1014.36 1014.10 1014.16 1013.86 1013.80 1013.60 1013.08 1013.17 1013.07 1012.86 1012.69 1012.76 1012.78 1013.02 1013.87 1014.00 1014.30 1013.92 1014.00 1015.22 1015.30 1015.25 1015.28 1015.42 1014.43 1012.98 1013.29 1013.03 1012.58 1012.89 1013.22 1013.74 1014.15 1014.63 1015.68
1017.86 1019.21 1019.43 1018.91 1018.65 1018.26 1017.55 1016.91 1015.96 1015.26 1014.41 1014.34 1014.32 1014.22 1014.41 1014.38 1014.03 1013.94 1013.59 1013.36 1013.38 1013.38 1013.41 1013.70 1014.08 1014.27 1014.34 1013.99 1013.99 1014.11 1014.25 1014.14 1013.64 1013.00 1013.51 1012.37 1013.10 1012.53 1012.30 1012.78 1012.98 1013.10 1013.84 1014.62 1015.24
1018.27 1019.14 1019.40 1019.49 1019.26 1018.69 1018.11 1017.50 1016.59 1016.05 1015.44 1014.85 1014.72 1014.66 1014.62 1014.84 1014.79 1014.56 1014.24 1014.18 1013.85 1013.99 1013.97 1013.97 1014.52 1014.60 1015.01 1014.66 1014.46 1014.31 1013.90 1013.62 1013.39 1013.03 1012.62 1012.79 1012.88 1012.65 1011.97 1012.26 1012.65 1013.06 1013.37 1013.98 1014.48
1018.12 1018.35 1018.41 1019.69 1019.63 1019.32 1019.04 1018.10 1017.28 1016.70 1016.08 1015.46 1015.15 1015.13 1015.17 1015.07 1014.72 1014.65 1014.71 1014.75 1014.24 1013.98 1014.29 1014.41 1014.91 1015.49 1015.96 1015.66 1015.20 1014.54 1013.24 1013.04 1012.90 1012.32 1011.93 1011.38 1011.99 1012.20 1011.98 1011.93 1011.84 1012.14 1012.80 1013.30 1013.57
Wind_Speed
19 19 20 18 19 19 17 17 19 19 17 18 18 21 19 17 15 16 16 11 11 3 2 7 3 2 2 4 4 4 4 3 5 7 4 6 5 3 2 7 1 3 5 4 17
19 20 21 20 18 20 19 16 17 17 19 18 18 23 17 17 15 20 11 18 14 3 2 7 6 6 4 5 3 5 4 9 5 6 7 8 6 10 6 4 2 2 4 15 19
19 20 21 20 19 19 18 18 16 17 18 18 16 18 14 14 18 15 19 22 20 12 5 3 2 5 5 3 5 6 6 4 3 4 7 10 6 5 12 3 7 11 13 18 17
20 21 21 20 19 19 20 19 20 17 18 18 18 14 17 11 13 4 6 22 25 16 10 9 4 6 6 7 5 5 3 4 1 3 5 11 10 5 6 7 3 10 19 20 19
21 21 21 19 19 19 20 20 19 18 18 18 20 23 10 9 9 5 4 16 18 14 9 7 8 5 7 5 3 4 3 3 2 3 1 8 6 7 7 3 7 15 15 20 19
20 20 20 18 18 18 20 20 19 16 18 21 20 14 14 22 6 8 6 4 12 11 10 7 1 2 5 3 3 1 4 4 3 2 3 5 3 7 5 5 10 15 15 14 17
20 20 18 17 18 18 19 20 18 16 20 21 19 8 8 16 8 8 11 2 4 11 12 9 6 3 8 6 5 4 1 3 2 2 4 4 3 7 4 7 12 11 13 11 11
20 20 18 16 17 17 19 20 17 16 22 18 15 9 6 5 8 9 14 6 6 6 12 16 6 5 3 5 9 5 1 2 2 4 2 3 13 5 6 12 11 9 10 11 12
19 17 17 15 17 16 19 18 18 23 20 15 5 13 5 14 5 8 8 9 11 13 9 10 2 4 2 8 6 2 6 4 2 1 4 4 4 5 5 7 9 9 10 11 9
19 16 16 13 14 16 16 17 18 17 12 7 6 9 12 8 6 9 7 9 6 18 10 4 3 6 4 12 17 7 8 5 7 4 3 4 2 2 5 8 12 10 7 9 10
18 14 13 11 12 16 7 5 6 3 5 6 15 3 10 12 5 5 8 8 6 5 7 4 6 14 12 10 9 14 10 14 3 1 3 6 3 5 4 3 7 8 8 10 11
13 12 10 8 12 9 3 2 6 4 9 8 7 5 9 10 8 7 5 5 3 5 7 5 8 11 11 6 9 14 14 3 2 2 2 1 7 4 5 6 7 8 10 13 5
9 7 6 6 11 4 2 1 2 3 3 8 6 4 7 7 7 10 4 6 5 5 5 11 7 11 10 6 8 14 20 12 5 3 4 2 6 5 5 4 4 7 7 7 12
3 2 2 7 3 3 3 2 4 1 2 2 6 3 3 8 5 3 1 6 3 6 5 4 3 16 12 6 3 6 6 13 11 6 6 2 9 5 6 7 6 9 10 11 10
7 4 5 3 3 2 5 5 2 0 2 3 3 4 2 2 13 6 4 4 8 7 3 2 5 15 17 11 5 1 4 13 6 7 3 5 2 6 2 7 9 14 14 12 11
7 5 3 2 3 1 6 8 1 2 2 3 5 1 5 2 2 6 4 8 8 9 7 4 2 2 3 3 5 6 8 10 6 6 7 10 8 7 7 9 7 9 10 11 9
9 10 5 2 5 9 5 2 2 4 4 4 2 2 7 1 5 6 7 10 6 7 3 2 4 3 0 12 5 3 11 4 0 4 9 2 4 8 6 7 6 8 9 8 6
9 7 4 2 7 6 1 3 9 5 5 5 1 7 4 3 5 6 12 5 1 3 5 4 2 4 1 5 10 6 3 7 9 9 5 2 8 8 8 4 5 4 3 4 6
7 4 4 5 6 2 3 8 2 4 6 8 1 3 2 2 3 4 4 9 5 5 6 6 3 1 1 1 2 8 6 2 7 2 4 5 5 10 6 10 7 7 5 6 5
2 3 4 9 6 3 6 5 3 3 6 3 4 3 3 3 2 3 5 1 4 1 1 4 6 1 2 2 4 3 4 2 2 5 3 3 4 6 6 10 7 7 8 6 5
4 4 5 11 3 6 5 3 2 4 4 6 6 3 4 3 3 2 4 1 1 3 5 5 4 4 6 5 6 4 4 1 0 3 5 5 7 8 8 6 8 6 7 7 6
3 4 5 6 6 3 4 1 1 4 4 4 2 5 4 4 3 2 2 2 3 1 6 1 5 5 2 3 2 2 5 6 5 5 1 2 6 1 2 3 4 5 7 6 6
2 2 5 3 4 3 4 3 1 4 5 5 8 6 4 3 3 2 2 3 6 2 5 3 2 5 4 2 1 5 6 6 3 1 7 5 6 3 1 4 4 6 4 6 7
4 4 6 6 1 4 3 3 3 3 3 2 2 2 4 6 7 3 2 1 9 5 2 4 3 3 5 0 8 9 7 13 9 4 4 12 3 4 4 4 2 4 5 6 6
4 1 2 3 6 5 2 2 3 4 4 5 5 6 4 5 3 4 4 2 6 7 3 3 3 2 3 3 3 9 13 16 22 18 16 12 11 7 6 7 6 6 5 6 7
4 4 3 2 3 3 5 4 4 5 4 4 4 4 4 3 2 3 1 3 2 4 5 1 2 3 4 5 1 3 9 14 15 10 8 5 5 8 5 4 5 7 7 7 8
0 2 5 3 3 3 3 2 4 3 3 3 1 2 4 0 3 5 6 3 1 2 4 5 4 3 3 4 2 7 9 11 7 6 5 16 7 7 5 7 9 9 8 9 9
Wind_Direction
315 311 305 301 304 308 297 302 302 291 281 289 284 296 266 255 233 176 202 185 182 157 263 271 276 261 184 151 129 131 85 181 211 156 184 164 140 177 114 119 132 150 152 162 143
313 307 303 296 298 297 296 290 298 302 290 283 284 291 256 245 228 204 172 152 141 89 220 175 224 177 177 171 137 125 152 205 206 182 179 175 152 152 135 123 151 128 52 132 147
310 303 298 297 291 294 296 284 291 291 296 278 278 308 244 221 228 219 179 162 142 134 239 138 71 245 177 162 188 171 191 198 234 203 162 152 147 155 126 225 203 184 155 152 157
310 299 294 292 287 289 292 292 280 292 288 288 273 279 270 220 225 139 279 188 150 144 150 135 150 221 161 177 176 146 210 166 4 156 159 163 126 154 176 201 201 168 159 158 167
308 300 294 293 290 285 293 296 278 287 289 298 266 269 284 219 215 165 304 176 147 136 162 135 166 192 170 151 141 162 136 104 5 220 62 133 158 179 200 33 109 129 155 169 173
309 303 295 293 291 282 294 297 286 289 293 297 271 279 269 218 129 153 110 136 154 156 151 122 224 183 120 176 134 13 111 94 43 179 116 134 138 133 220 131 120 147 166 176 180
311 304 298 292 292 283 294 298 290 289 293 287 279 287 251 204 164 154 115 93 130 163 142 126 205 153 140 142 208 56 121 77 130 227 139 140 43 218 146 149 149 168 172 176 189
309 309 302 293 293 283 295 295 289 279 275 284 297 324 218 164 145 134 118 132 119 98 130 144 201 91 235 128 56 137 319 108 165 152 157 164 212 227 162 153 174 172 178 180 197
304 305 302 293 289 286 294 293 279 271 260 267 318 266 192 133 163 149 141 135 111 100 99 138 145 116 240 141 109 359 146 204 322 103 145 178 212 187 170 164 180 189 191 192 194
297 299 297 289 287 295 301 286 276 277 264 215 232 220 161 145 167 95 110 121 113 113 102 181 116 122 209 183 194 151 125 241 215 213 129 168 224 181 183 172 195 199 196 197 200
288 297 298 291 291 301 319 335 359 316 11 3 285 143 135 123 144 135 128 103 117 109 164 154 139 187 181 197 144 143 137 187 177 327 190 197 214 198 187 187 207 208 206 216 215
288 295 294 291 295 311 327 38 147 228 306 320 80 106 125 142 116 136 127 105 149 131 129 126 181 170 143 148 166 148 162 125 9 17 133 148 242 226 198 220 207 206 217 220 187
277 282 280 290 296 310 262 134 182 188 281 310 304 62 140 124 109 165 182 127 104 87 200 174 144 159 152 148 168 184 183 164 162 130 63 139 272 193 232 227 206 221 226 227 211
226 257 296 304 297 295 267 237 261 286 247 334 331 18 93 123 78 127 317 113 86 97 53 102 146 171 150 154 109 179 170 151 127 121 217 324 247 232 205 216 218 227 219 228 215
73 23 11 49 263 308 330 318 266 83 261 26 348 313 63 149 125 172 36 70 112 119 93 89 155 152 162 189 122 43 117 167 116 93 36 314 235 262 126 218 228 230 227 223 219
67 68 75 15 291 256 325 312 305 243 358 21 341 97 99 42 98 108 76 59 76 67 57 34 314 118 113 105 106 148 93 63 52 110 232 202 183 249 196 198 213 224 227 222 213
68 68 61 11 315 323 322 295 29 45 294 357 45 100 87 74 100 135 148 132 145 123 135 96 10 351 333 105 55 107 147 102 137 186 217 248 179 239 248 229 211 204 210 215 216
8 13 360 102 306 298 40 55 45 330 341 332 120 62 83 33 37 143 140 131 221 87 125 139 149 202 199 159 174 150 177 163 183 194 172 100 225 240 214 263 236 221 224 213 199
355 342 350 303 307 286 77 55 42 321 303 311 339 83 88 54 99 103 145 147 185 216 127 139 71 116 293 138 223 161 195 141 102 2 82 198 279 300 228 253 236 223 200 210 220
46 350 274 312 321 41 70 105 9 280 306 291 21 12 101 90 77 86 126 148 139 233 64 152 112 77 73 68 35 65 123 135 330 129 215 282 264 229 233 227 197 221 222 213 197
56 18 265 324 39 50 96 125 239 279 27 19 11 42 75 102 72 62 98 87 208 137 94 131 108 137 128 211 184 125 154 89 280 152 172 154 249 218 209 219 214 197 203 199 195
60 14 314 344 47 8 50 120 292 326 40 36 23 22 354 87 72 77 96 336 128 141 110 91 106 128 123 333 140 72 165 175 174 204 86 143 282 120 216 297 276 238 197 181 181
81 257 314 44 84 14 303 38 79 355 28 41 17 17 3 38 116 109 167 9 138 72 131 152 123 115 123 345 45 198 210 180 91 57 194 160 243 344 292 287 262 254 208 171 184
69 17 333 38 94 107 32 349 355 346 69 2 42 9 21 17 21 114 127 313 168 152 53 76 134 180 178 223 132 179 180 192 181 194 137 225 176 261 243 248 263 205 196 183 197
38 102 157 344 353 5 25 335 6 6 19 31 24 35 42 22 40 25 1 103 112 147 111 128 116 344 33 25 84 164 179 183 199 207 206 228 198 233 180 192 210 195 171 184 200
124 136 115 84 336 358 354 340 23 338 355 23 75 347 46 73 77 32 349 15 121 155 175 263 129 121 359 349 310 242 213 206 216 231 261 139 219 247 273 142 182 205 189 194 203
119 21 103 7 19 58 274 304 354 322 3 38 47 17 28 238 222 178 136 156 52 146 152 142 137 101 232 349 339 297 217 208 224 215 175 238 192 177 231 235 231 215 191 205 219